Regional Weather Roundup
Issued by NWS Nashville, TN

Home | Current Version | Previous Version | Text Only | Print | Product List | Glossary On
Versions: 1 2 3 4 5 6 7 8 9 10 11 12 13 14 15 16 17 18 19 20 21 22 23 24 25 26 27 28 29 30 31 32 33 34 35 36 37 38 39 40 41 42 43 44 45 46 47 48 49 50
000
ASUS44 KOHX 021715
RWROHX
MIDDLE TENNESSEE HOURLY WEATHER ROUNDUP
NATIONAL WEATHER SERVICE NASHVILLE TN
1100 AM CST MON MAR 02 2015

NOTE: "FAIR" INDICATES FEW OR NO CLOUDS BELOW 12,000 FEET WITH
NO SIGNIFICANT WEATHER AND/OR OBSTRUCTIONS TO VISIBILITY.

* THESE REPORTS ARE NOT UNDER NWS QUALITY CONTROL AND MAY NOT
  REPORT WEATHER SUCH AS PRECIPITATION AND FOG.


TNZ005>011-023>034-057-059-062>066-078-080-021800
...NORTHERN MIDDLE TENNESSEE...

CITY           SKY/WX    TMP DP  RH WIND       PRES   REMARKS
CLARKSVILLE    SUNNY     36  24  62 E10       30.50F WCI  28
CROSSVILLE     CLOUDY    33  30  88 NE9       30.41S WCI  25
GALLATIN         N/A     39  31  73 NE9       30.49F WCI  33
DICKSON        SUNNY     36  27  69 NE9       30.46S WCI  29
LEBANON        PTSUNNY   36  29  76 NE8       30.47R WCI  30
NASHVILLE      PTSUNNY   41  30  65 NE9G18    30.48F
WEST NASHVILLE   N/A     37  27  65 NE9       30.49F WCI  31
PORTLAND       SUNNY     36  27  69 E8        30.46F WCI  29
SMYRNA         MOSUNNY   41  30  65 E10       30.49F
SPARTA         CLOUDY    36  34  93 NE6       30.44S WCI  31
$$
TNZ056-058-060-061-075>077-079-093>097-021800
...SOUTHERN MIDDLE TENNESSEE...

CITY           SKY/WX    TMP DP  RH WIND       PRES   REMARKS
COLUMBIA       CLOUDY    39  39 100 NE12      30.43F WCI  32
LEWISBURG      CLOUDY    36  30  79 NE10      30.45F WCI  28
MCMINNVILLE    CLOUDY    37  37 100 NE10      30.43F WCI  30
MURFREESBORO   CLOUDY    38  33  82 NE8       30.47F WCI  32
SHELBYVILLE    CLOUDY    37  34  87 NE9       30.45F WCI  31
TULLAHOMA      CLOUDY    37  34  87 NE9       30.42F WCI  31
WINCHESTER     CLOUDY    39  37  93 N7        30.42F WCI  34
$$


...KEY TO REMARKS...
VSB - VISIBILITY IN MILES
WCI - WIND CHILL INDEX
HX  - HEAT INDEX




USA.gov is the U.S. government's official web portal to all federal, state and local government web resources and services.